User: anonymous   Login
Location: Unspecified
(0.0000°N, 0.0000°E)
Time: 18:42:20
(UTC+00:00)
Language:

MUOS 5 - Orbit

View from above orbital plane
View from above orbital plane
View from above satellite
View from above satellite

Ground track
Ground track

The orbit data is extracted from the following two-line orbital elements,

1 41622U 16041A   17175.41719567 0.00000000  00000-0  00000-0 0    01
2 41622   9.3201 318.3896 0209368 191.3700 168.1622  1.00270000    05
Epoch (UTC): 24 June 2017 10:00:45
Eccentricity: 0.0209368
inclination: 9.3201°
perigee height: 34904 km
apogee height: 36669 km
right ascension of ascending node: 318.3896°
argument of perigee: 191.3700°
revolutions per day: 1.00270000
mean anomaly at epoch: 168.1622°
orbit number at epoch: 0

The dashed part of the orbit path shows where the satellite is in the earth's shadow,  

DLR